VE1DX Weather Reports


time (UTC)temp
F
wind
direction
speed
knots
gust
knots
rain 1hr
in
rain 24hr
in
rain mn
in
humidity
%
barometer
mb
20260505012017 46 0.0 1.7 0.00 0.13 0.11 79 1007.6
20260505011517 46 0.0 0.9 0.00 0.13 0.11 79 1007.5
20260505011016 46 0.0 0.9 0.00 0.13 0.11 79 1007.6
20260505010517 46 0.0 0.9 0.00 0.13 0.11 78 1007.6
20260505010016 46 0.0 1.7 0.00 0.13 0.11 78 1007.5
20260505005517 46 0.0 1.7 0.00 0.13 0.11 78 1007.4
20260505005017 46 0.0 0.9 0.00 0.13 0.11 78 1007.4
20260505004516 46 0.0 1.7 0.00 0.13 0.11 77 1007.3
20260505004017 47 0.0 0.9 0.00 0.13 0.11 77 1007.2
20260505003517 47 0.0 0.9 0.00 0.13 0.11 77 1007.2
20260505003017 47 0.0 1.7 0.00 0.13 0.11 77 1007.1
20260505002516 47 158 0.9 2.6 0.00 0.13 0.11 77 1007.1
20260505002017 47 0.0 2.6 0.00 0.13 0.11 76 1007.1
20260505001517 47 0.0 1.7 0.00 0.13 0.11 76 1007.0
20260505001016 48 0.0 1.7 0.00 0.13 0.11 75 1006.9
20260505000517 48 0.0 1.7 0.00 0.13 0.11 75 1006.8
20260505000017 48 0.0 0.9 0.00 0.13 0.11 74 1006.7
20260504235517 48 0.0 0.0 0.00 0.13 0.11 74 1006.7
20260504235017 49 0.0 2.6 0.00 0.13 0.11 74 1006.6
20260504234516 49 0.0 2.6 0.00 0.13 0.11 73 1006.5
20260504234016 49 225 0.9 2.6 0.00 0.13 0.11 73 1006.6
20260504233517 49 225 0.9 3.5 0.00 0.13 0.11 73 1006.5
20260504233016 49 203 1.7 5.2 0.00 0.13 0.11 73 1006.6
20260504232517 49 225 0.9 4.3 0.00 0.13 0.11 73 1006.5
20260504232017 49 113 1.7 5.2 0.00 0.13 0.11 72 1006.4
20260504231517 50 203 1.7 5.2 0.00 0.13 0.11 72 1006.3
20260504231017 50 203 1.7 7.0 0.00 0.13 0.11 71 1006.2
20260504230516 50 113 1.7 7.0 0.00 0.13 0.11 71 1006.1
20260504230017 51 135 0.9 2.6 0.00 0.13 0.11 70 1006.1
20260504225517 51 135 0.9 3.5 0.00 0.13 0.11 69 1005.9
20260504225017 52 135 0.9 3.5 0.00 0.14 0.11 69 1005.8
20260504224516 52 225 1.7 7.8 0.00 0.14 0.11 67 1005.9
20260504224017 52 135 0.9 6.1 0.00 0.14 0.11 67 1005.8
20260504223517 52 158 1.7 4.3 0.00 0.14 0.11 67 1005.8
20260504223017 52 248 0.9 5.2 0.00 0.14 0.11 67 1005.8
20260504222517 52 225 1.7 5.2 0.00 0.15 0.11 67 1005.9
20260504222017 52 315 0.9 2.6 0.00 0.15 0.11 67 1005.9
20260504221517 52 225 0.9 6.1 0.00 0.16 0.11 67 1005.9
20260504221017 52 203 2.6 9.6 0.00 0.17 0.11 68 1005.9
20260504220517 52 158 0.9 4.3 0.00 0.17 0.11 68 1005.8
20260504220016 52 225 0.9 5.2 0.00 0.17 0.11 68 1005.8
20260504215517 52 225 1.7 7.0 0.00 0.18 0.11 67 1005.7
20260504215016 52 225 1.7 6.1 0.00 0.18 0.11 66 1005.6
20260504214517 53 158 1.7 8.7 0.00 0.18 0.11 65 1005.5
20260504214017 53 135 0.9 4.3 0.00 0.18 0.11 64 1005.3
20260504213516 53 135 1.7 7.8 0.00 0.19 0.11 63 1005.5
20260504213017 53 225 2.6 10.4 0.00 0.19 0.11 62 1005.4
20260504212516 53 203 2.6 7.0 0.00 0.19 0.11 61 1005.3
20260504212017 54 203 2.6 8.7 0.00 0.19 0.11 60 1005.2
20260504211516 54 180 3.5 9.6 0.00 0.19 0.11 59 1005.0
20260504211016 54 225 3.5 9.6 0.00 0.19 0.11 58 1005.0
20260504210517 55 158 2.6 7.0 0.00 0.19 0.11 58 1005.0
20260504210016 55 225 3.5 10.4 0.00 0.20 0.11 56 1005.0
20260504205517 55 225 3.5 12.2 0.00 0.20 0.11 55 1004.9
20260504205016 56 203 4.3 13.9 0.00 0.20 0.11 54 1004.9
20260504204517 56 158 2.6 9.6 0.00 0.20 0.11 53 1004.8
20260504204016 57 135 2.6 9.6 0.00 0.21 0.11 51 1004.8
20260504203516 58 158 3.5 9.6 0.00 0.22 0.11 50 1004.7
20260504203017 59 135 3.5 8.7 0.00 0.24 0.11 47 1004.6
20260504202516 60 113 4.3 13.0 0.00 0.24 0.11 46 1004.5
20260504202016 62 135 3.5 8.7 0.00 0.25 0.11 43 1004.3
20260504201516 63 225 2.6 9.6 0.00 0.27 0.11 39 1004.3
20260504201017 62 293 5.2 13.9 0.00 0.27 0.11 32 1004.1
20260504200517 62 315 4.3 12.2 0.00 0.28 0.11 32 1004.2
20260504200016 63 225 3.5 12.2 0.00 0.28 0.11 33 1004.3
20260504195516 62 225 4.3 11.3 0.00 0.28 0.11 32 1004.1
20260504195017 62 225 5.2 13.0 0.00 0.28 0.11 31 1004.0
20260504194517 62 270 3.5 14.8 0.00 0.28 0.11 32 1003.9
20260504194016 62 293 5.2 15.6 0.00 0.29 0.11 32 1003.8
20260504193517 62 315 4.3 10.4 0.00 0.29 0.11 32 1003.8
20260504193017 62 293 3.5 11.3 0.00 0.30 0.11 33 1003.7
20260504192516 62 293 4.3 14.8 0.00 0.30 0.11 32 1003.6
20260504192017 62 293 4.3 13.9 0.00 0.31 0.11 33 1003.6
20260504191517 62 225 6.1 15.6 0.00 0.31 0.11 33 1003.7
20260504191017 62 293 4.3 13.9 0.00 0.31 0.11 33 1003.5
20260504190517 62 293 5.2 12.2 0.00 0.32 0.11 32 1003.6
20260504190016 62 248 4.3 12.2 0.00 0.32 0.11 32 1003.5
20260504185516 61 270 5.2 22.6 0.00 0.33 0.11 31 1003.6
20260504185017 61 248 6.1 22.6 0.00 0.34 0.11 32 1003.6
20260504184516 61 293 6.1 15.6 0.00 0.35 0.11 32 1003.5
20260504184017 61 315 4.3 11.3 0.00 0.36 0.11 32 1003.6
20260504183517 60 293 7.0 13.0 0.00 0.38 0.11 32 1003.8
20260504183016 60 315 6.1 13.9 0.00 0.39 0.11 31 1003.8
20260504182516 60 315 5.2 13.0 0.00 0.41 0.11 33 1003.7
20260504182016 60 315 3.5 10.4 0.00 0.43 0.11 33 1003.8
20260504181517 60 293 7.0 16.5 0.00 0.45 0.11 32 1003.8
20260504181016 60 270 7.8 18.2 0.00 0.47 0.11 32 1003.7
20260504180516 60 293 4.3 11.3 0.00 0.48 0.11 34 1003.7
20260504180017 59 293 5.2 12.2 0.00 0.50 0.11 33 1003.8
20260504175516 59 293 7.8 13.0 0.00 0.50 0.11 33 1004.0
20260504175017 58 315 7.0 20.0 0.00 0.50 0.11 33 1003.9
20260504174516 58 315 9.6 17.4 0.00 0.52 0.11 31 1004.1
20260504174016 58 315 7.0 15.6 0.00 0.53 0.11 33 1004.2
20260504173517 58 315 6.1 20.0 0.00 0.54 0.11 32 1004.1
20260504173016 58 315 7.0 18.2 0.00 0.55 0.11 34 1004.0
20260504172517 58 293 6.1 15.6 0.00 0.56 0.11 33 1004.0
20260504172017 58 293 5.2 13.0 0.00 0.57 0.11 34 1003.8
20260504171517 58 315 6.1 17.4 0.00 0.58 0.11 33 1004.0
20260504171017 57 315 7.8 15.6 0.00 0.61 0.11 33 1003.9
20260504170516 58 315 6.1 16.5 0.00 0.61 0.11 34 1003.8
20260504151016 53 315 6.1 14.8 0.00 0.67 0.11 54 1003.5
20260504150516 53 293 6.1 13.9 0.00 0.68 0.11 54 1003.4
20260504141016 51 315 6.1 14.8 0.00 0.69 0.11 62 1003.1
20260504140516 51 293 6.1 16.5 0.00 0.69 0.11 62 1002.9
20260504130517 46 293 5.2 13.9 0.00 0.69 0.11 76 1002.0
20260504110517 43 315 4.3 8.7 0.00 0.69 0.11 85 999.7
20260504100517 42 315 4.3 10.4 0.00 0.69 0.11 89 998.4
20260504081516 38 293 4.3 12.2 0.00 0.69 0.11 93 995.9
20260504081016 38 315 4.3 10.4 0.00 0.69 0.11 93 995.8
20260504080517 38 315 5.2 13.0 0.00 0.69 0.11 93 995.7
20260504050517 36 315 6.1 16.5 0.03 0.65 0.07 94 990.8
20260504050016 36 315 5.2 12.2 0.04 0.65 0.07 94 990.8
20260504045517 36 315 4.3 12.2 0.04 0.65 0.07 94 990.6
20260504045017 36 315 6.1 11.3 0.05 0.65 0.07 93 990.6
20260504044516 36 293 4.3 11.3 0.05 0.64 0.06 93 990.4
20260504044016 36 315 6.1 12.2 0.05 0.64 0.06 93 990.2
20260504043516 36 315 5.2 13.0 0.04 0.63 0.06 93 990.0
20260504043016 36 293 6.1 14.8 0.04 0.63 0.06 93 990.0
20260504042516 36 293 6.1 12.2 0.04 0.62 0.05 93 989.7
20260504042016 36 315 4.3 9.6 0.04 0.62 0.05 94 989.6
20260504041517 35 293 5.2 13.0 0.03 0.61 0.04 93 989.5
20260504041016 35 315 5.2 12.2 0.03 0.61 0.04 93 989.3
20260504040516 35 315 5.2 13.0 0.03 0.61 0.04 93 989.1
20260504040016 35 315 6.1 15.6 0.03 0.61 0.03 93 989.1
20260504035516 35 293 7.0 14.8 0.03 0.61 0.03 93 988.9
20260504035016 35 315 5.2 12.2 0.02 0.60 0.02 93 988.8
20260504034516 35 315 4.3 9.6 0.02 0.59 0.02 93 988.5
20260504034017 35 293 6.1 13.0 0.02 0.59 0.02 93 988.3
20260504033516 35 315 5.2 14.8 0.02 0.59 0.02 93 988.1
20260504033016 35 315 4.3 9.6 0.02 0.59 0.02 93 988.0
20260504032517 35 315 6.1 13.0 0.02 0.58 0.01 93 987.8
20260504032016 35 315 5.2 13.9 0.02 0.58 0.01 93 987.7
20260504031516 35 315 5.2 11.3 0.02 0.58 0.01 93 987.5
20260504031016 35 315 5.2 11.3 0.02 0.58 0.01 93 987.4
20260504030516 36 315 5.2 9.6 0.02 0.58 0.01 93 987.1
20260504030016 36 315 4.3 11.3 0.01 0.57 0.00 93 986.9
20260504025517 36 293 5.2 13.0 0.02 0.57 0.57 93 986.7
20260504025017 37 315 6.1 12.2 0.02 0.57 0.57 93 986.5
20260504024517 37 315 5.2 9.6 0.01 0.57 0.57 93 986.3
20260504024017 37 315 6.1 12.2 0.01 0.57 0.57 93 986.0
20260504023517 38 315 6.1 11.3 0.01 0.57 0.57 93 985.8
20260504023017 38 315 6.1 12.2 0.01 0.57 0.57 93 985.7
20260504022517 38 315 5.2 13.9 0.01 0.57 0.57 94 985.5
20260504022017 38 315 5.2 11.3 0.01 0.57 0.57 94 985.2
20260504021517 38 315 5.2 13.0 0.01 0.57 0.57 94 984.9
20260504021017 38 315 5.2 10.4 0.01 0.57 0.57 94 984.8
20260504020517 38 315 5.2 9.6 0.01 0.57 0.57 94 984.5
20260504020017 38 315 7.0 16.5 0.01 0.57 0.57 94 984.3
20260504015517 38 338 7.0 17.4 0.00 0.56 0.56 94 984.0
20260504015017 38 315 8.7 14.8 0.00 0.56 0.56 94 983.7
20260504014517 38 338 10.4 21.7 0.00 0.56 0.56 94 983.3
20260504014017 38 338 10.4 20.9 0.00 0.56 0.56 94 982.6
20260504013517 38 338 11.3 22.6 0.00 0.56 0.56 94 982.9
20260504013017 37 315 9.6 19.1 0.00 0.56 0.56 94 982.6
20260504012517 37 315 8.7 19.1 0.00 0.56 0.56 94 983.1